• In Moldova, Republic
  • List of Countries
  • For 7 days
  • Water Temperature
  • Satellite Maps
  • Weather Map
  • Weather Widgets
  • user-avatar
    Login

    Hourly Weather Gory

    Today, 24 October, Wednesday

    Time Temperature Precipitation Wind Pressure Humidity
    00:00 +6°C° 0.6 mm 8 mps 729 mmHg 81%
    01:00 +6°C° 0.6 mm 8 mps 728 mmHg 80%
    02:00 +6°C° 0.5 mm 8 mps 728 mmHg 79%
    03:00 +5°C° 0.5 mm 8 mps 727 mmHg 79%
    04:00 +5°C° 0.5 mm 8 mps 727 mmHg 78%
    05:00 +5°C° 0.5 mm 8 mps 727 mmHg 77%
    06:00 +4°C° 0.5 mm 8 mps 728 mmHg 76%
    07:00 +4°C° 0.5 mm 8 mps 728 mmHg 75%
    08:00 +3°C° 0.3 mm 9 mps 729 mmHg 70%
    09:00 +3°C° 0.3 mm 10 mps 729 mmHg 66%
    10:00 +5°C° 0.3 mm 10 mps 730 mmHg 62%
    11:00 +5°C° 0.1 mm 10 mps 730 mmHg 60%
    12:00 +5°C° 0.1 mm 10 mps 731 mmHg 58%
    13:00 +4°C° 0.1 mm 11 mps 731 mmHg 56%
    14:00 +3°C° 0 mm 10 mps 732 mmHg 56%
    15:00 +3°C° 0 mm 10 mps 732 mmHg 56%
    16:00 +3°C° 0 mm 10 mps 733 mmHg 56%
    17:00 +3°C° 0 mm 10 mps 733 mmHg 57%
    18:00 +2°C° 0 mm 10 mps 734 mmHg 59%
    19:00 +2°C° 0 mm 10 mps 735 mmHg 60%
    20:00 +2°C° 0 mm 10 mps 735 mmHg 62%
    21:00 +2°C° 0 mm 9 mps 736 mmHg 63%
    22:00 +2°C° 0 mm 9 mps 736 mmHg 64%
    23:00 +2°C° 0 mm 8 mps 737 mmHg 66%

    Tomorrow, 25 October, Thursday

    Time Temperature Precipitation Wind Pressure Humidity
    00:00 +1°C° 0 mm 8 mps 737 mmHg 67%
    01:00 +2°C° 0 mm 7 mps 738 mmHg 69%
    02:00 +2°C° 0 mm 7 mps 738 mmHg 70%
    03:00 +1°C° 0 mm 6 mps 738 mmHg 71%
    04:00 +1°C° 0 mm 6 mps 738 mmHg 73%
    05:00 +1°C° 0 mm 6 mps 738 mmHg 75%
    06:00 +1°C° 0 mm 5 mps 738 mmHg 76%
    07:00 +1°C° 0 mm 5 mps 738 mmHg 78%
    08:00 +2°C° 0.1 mm 5 mps 738 mmHg 76%
    09:00 +3°C° 0.1 mm 6 mps 737 mmHg 74%
    10:00 +3°C° 0.1 mm 6 mps 737 mmHg 72%
    11:00 +4°C° 1.1 mm 6 mps 736 mmHg 77%
    12:00 +4°C° 1.1 mm 6 mps 735 mmHg 82%
    13:00 +4°C° 1.1 mm 7 mps 734 mmHg 88%
    14:00 +6°C° 0.5 mm 7 mps 734 mmHg 85%
    15:00 +7°C° 0.5 mm 8 mps 733 mmHg 83%
    16:00 +9°C° 0.5 mm 8 mps 733 mmHg 81%
    17:00 +7°C° 0.4 mm 8 mps 733 mmHg 79%
    18:00 +7°C° 0.4 mm 8 mps 734 mmHg 78%
    19:00 +6°C° 0.4 mm 7 mps 734 mmHg 76%
    20:00 +6°C° 0 mm 7 mps 735 mmHg 78%
    21:00 +5°C° 0 mm 7 mps 735 mmHg 79%
    22:00 +4°C° 0 mm 7 mps 736 mmHg 81%
    23:00 +4°C° 0 mm 6 mps 736 mmHg 82%

    Day after tomorrow, 26 October, Friday

    Time Temperature Precipitation Wind Pressure Humidity
    00:00 +4°C° 0 mm 6 mps 736 mmHg 83%
    01:00 +4°C° 0 mm 6 mps 737 mmHg 84%
    02:00 +4°C° 0 mm 6 mps 737 mmHg 85%
    03:00 +3°C° 0 mm 5 mps 737 mmHg 86%
    04:00 +3°C° 0 mm 5 mps 737 mmHg 87%
    05:00 +3°C° 0 mm 5 mps 737 mmHg 87%
    06:00 +3°C° 0 mm 5 mps 737 mmHg 86%
    07:00 +3°C° 0 mm 5 mps 738 mmHg 86%
    08:00 +5°C° 0 mm 5 mps 738 mmHg 81%
    09:00 +6°C° 0 mm 5 mps 738 mmHg 75%
    10:00 +7°C° 0 mm 5 mps 738 mmHg 70%
    11:00 +8°C° 0 mm 5 mps 738 mmHg 67%
    12:00 +9°C° 0 mm 5 mps 737 mmHg 63%
    13:00 +9°C° 0 mm 5 mps 737 mmHg 59%
    14:00 +9°C° 0 mm 5 mps 737 mmHg 65%
    15:00 +8°C° 0 mm 4 mps 736 mmHg 72%
    16:00 +9°C° 0 mm 3 mps 736 mmHg 78%
    17:00 +8°C° 0 mm 4 mps 736 mmHg 79%
    18:00 +8°C° 0 mm 4 mps 735 mmHg 81%
    19:00 +8°C° 0 mm 5 mps 735 mmHg 82%
    20:00 +8°C° 0 mm 5 mps 735 mmHg 80%
    21:00 +8°C° 0 mm 6 mps 734 mmHg 79%
    22:00 +8°C° 0 mm 6 mps 734 mmHg 77%
    23:00 +8°C° 0 mm 6 mps 734 mmHg 78%

    27 October, Saturday

    Time Temperature Precipitation Wind Pressure Humidity
    00:00 +8°C° 0 mm 6 mps 734 mmHg 80%
    01:00 +8°C° 0 mm 6 mps 734 mmHg 81%
    02:00 +7°C° 0 mm 6 mps 734 mmHg 79%
    03:00 +7°C° 0 mm 6 mps 734 mmHg 78%
    04:00 +7°C° 0 mm 6 mps 734 mmHg 77%
    05:00 +5°C° 0 mm 6 mps 735 mmHg 75%
    06:00 +5°C° 0 mm 6 mps 735 mmHg 74%
    07:00 +5°C° 0 mm 6 mps 735 mmHg 73%
    08:00 +5°C° 0 mm 6 mps 736 mmHg 70%
    09:00 +5°C° 0 mm 6 mps 737 mmHg 66%
    10:00 +7°C° 0 mm 6 mps 737 mmHg 63%
    11:00 +7°C° 0 mm 6 mps 737 mmHg 61%
    12:00 +7°C° 0 mm 6 mps 738 mmHg 59%
    13:00 +8°C° 0 mm 5 mps 738 mmHg 57%
    14:00 +7°C° 0 mm 5 mps 739 mmHg 59%
    15:00 +7°C° 0 mm 4 mps 739 mmHg 61%
    16:00 +7°C° 0 mm 3 mps 739 mmHg 63%
    17:00 +7°C° 0 mm 3 mps 740 mmHg 65%
    18:00 +7°C° 0 mm 2 mps 740 mmHg 67%
    19:00 +6°C° 0 mm 2 mps 741 mmHg 70%
    20:00 +6°C° 0 mm 2 mps 741 mmHg 71%
    21:00 +6°C° 0 mm 2 mps 741 mmHg 72%
    22:00 +6°C° 0 mm 1 mps 741 mmHg 73%
    23:00 +6°C° 0 mm 1 mps 742 mmHg 73%

    28 October, Sunday

    Time Temperature Precipitation Wind Pressure Humidity
    00:00 +6°C° 0 mm 1 mps 742 mmHg 73%
    01:00 +5°C° 0 mm 0 mps 742 mmHg 73%
    02:00 +6°C° 0 mm 1 mps 743 mmHg 75%
    03:00 +6°C° 0 mm 1 mps 743 mmHg 76%
    04:00 +5°C° 0 mm 1 mps 743 mmHg 78%
    05:00 +6°C° 0.1 mm 1 mps 743 mmHg 78%
    06:00 +6°C° 0.1 mm 1 mps 743 mmHg 78%
    07:00 +5°C° 0.1 mm 2 mps 744 mmHg 78%
    08:00 +5°C° 0.2 mm 2 mps 744 mmHg 76%
    09:00 +5°C° 0.2 mm 3 mps 744 mmHg 74%
    10:00 +5°C° 0.2 mm 3 mps 744 mmHg 73%
    11:00 +5°C° 0.6 mm 4 mps 744 mmHg 74%
    12:00 +5°C° 0.6 mm 5 mps 743 mmHg 75%
    13:00 +5°C° 0.6 mm 5 mps 743 mmHg 76%
    14:00 +3°C° 1.2 mm 6 mps 743 mmHg 78%
    15:00 +3°C° 1.2 mm 6 mps 743 mmHg 81%
    16:00 +3°C° 1.2 mm 6 mps 742 mmHg 83%
    17:00 +3°C° 1.4 mm 6 mps 742 mmHg 84%
    18:00 +3°C° 1.4 mm 7 mps 742 mmHg 86%
    19:00 +3°C° 1.4 mm 7 mps 742 mmHg 87%
    20:00 +3°C° 1.4 mm 7 mps 742 mmHg 88%
    21:00 +3°C° 1.4 mm 6 mps 741 mmHg 89%
    22:00 +3°C° 1.4 mm 6 mps 741 mmHg 90%
    23:00 +3°C° 0.7 mm 6 mps 741 mmHg 90%

    29 October, Monday

    Time Temperature Precipitation Wind Pressure Humidity
    00:00 +3°C° 0.7 mm 6 mps 740 mmHg 91%
    01:00 +5°C° 0.7 mm 5 mps 740 mmHg 92%
    02:00 +5°C° 0.4 mm 5 mps 739 mmHg 92%
    03:00 +5°C° 0.4 mm 5 mps 739 mmHg 93%
    04:00 +5°C° 0.4 mm 5 mps 738 mmHg 93%
    05:00 +6°C° 0 mm 5 mps 738 mmHg 93%
    06:00 +6°C° 0 mm 5 mps 737 mmHg 93%
    07:00 +6°C° 0 mm 5 mps 737 mmHg 93%
    08:00 +7°C° 0.1 mm 5 mps 737 mmHg 90%
    09:00 +8°C° 0.1 mm 5 mps 736 mmHg 87%
    10:00 +9°C° 0.1 mm 5 mps 736 mmHg 84%
    11:00 +12°C° 0 mm 5 mps 736 mmHg 80%
    12:00 +13°C° 0 mm 4 mps 735 mmHg 77%
    13:00 +14°C° 0 mm 4 mps 735 mmHg 74%
    14:00 +14°C° 0.1 mm 4 mps 735 mmHg 77%
    15:00 +13°C° 0.1 mm 4 mps 735 mmHg 79%
    16:00 +13°C° 0.1 mm 4 mps 734 mmHg 82%
    17:00 +13°C° 0.7 mm 4 mps 735 mmHg 85%
    18:00 +13°C° 0.7 mm 3 mps 735 mmHg 87%
    19:00 +13°C° 0.7 mm 3 mps 735 mmHg 90%
    20:00 +12°C° 0.1 mm 3 mps 735 mmHg 91%
    21:00 +12°C° 0.1 mm 3 mps 735 mmHg 91%
    22:00 +12°C° 0.1 mm 3 mps 735 mmHg 92%
    23:00 +12°C° 0 mm 3 mps 735 mmHg 92%

    30 October, Tuesday

    Time Temperature Precipitation Wind Pressure Humidity
    00:00 +11°C° 0 mm 3 mps 735 mmHg 92%
    01:00 +11°C° 0 mm 3 mps 736 mmHg 92%
    02:00 +11°C° 0 mm 3 mps 736 mmHg 92%
    03:00 +11°C° 0 mm 3 mps 735 mmHg 92%
    04:00 +11°C° 0 mm 3 mps 735 mmHg 91%
    05:00 +11°C° 0 mm 4 mps 735 mmHg 90%
    06:00 +11°C° 0 mm 4 mps 736 mmHg 89%
    07:00 +12°C° 0 mm 4 mps 736 mmHg 88%
    08:00 +13°C° 0 mm 5 mps 736 mmHg 81%
    09:00 +15°C° 0 mm 5 mps 736 mmHg 75%
    10:00 +17°C° 0 mm 6 mps 736 mmHg 68%
    11:00 +17°C° 0 mm 5 mps 736 mmHg 67%
    12:00 +19°C° 0 mm 5 mps 736 mmHg 66%
    13:00 +19°C° 0 mm 4 mps 736 mmHg 64%
    14:00 +18°C° 0.2 mm 4 mps 735 mmHg 69%
    15:00 +17°C° 0.2 mm 4 mps 735 mmHg 74%
    16:00 +16°C° 0.2 mm 3 mps 735 mmHg 79%
    17:00 +16°C° 0.7 mm 3 mps 735 mmHg 81%
    18:00 +16°C° 0.7 mm 3 mps 734 mmHg 83%
    19:00 +14°C° 0.7 mm 3 mps 734 mmHg 85%
    20:00 +14°C° 0.3 mm 3 mps 734 mmHg 85%
    21:00 +13°C° 0.3 mm 3 mps 733 mmHg 85%
    22:00 +13°C° 0.3 mm 3 mps 733 mmHg 86%
    23:00 +13°C° 0.5 mm 3 mps 733 mmHg 87%
    Show more